This is the latest recevied weather packets stored in our database for station/object DL1GHN-6. If no packets are shown the sender has not sent any weather packets the latest 10 day(s).
| Time | Temp. | Humidity | Pressure | Rain* | Wind** | Luminosity | Snow |
|---|---|---|---|---|---|---|---|
| 1778166430 | 15.56° C | 67% | 1015.5 hPa | 0 mm | - | 325 W/m² | - |
| 1778166129 | 15.56° C | 68% | 1015.5 hPa | 0 mm | - | 243 W/m² | - |
| 1778165829 | 15.56° C | 71% | 1015.4 hPa | 0 mm | - | 278 W/m² | - |
| 1778165530 | 15.56° C | 71% | 1015.5 hPa | 0 mm | - | 311 W/m² | - |
| 1778165230 | 15.56° C | 70% | 1015.5 hPa | 0 mm | - | 301 W/m² | - |
| 1778164929 | 15.56° C | 74% | 1015.5 hPa | 0 mm | - | 367 W/m² | - |
| 1778164630 | 15° C | 73% | 1015.4 hPa | 0 mm | - | 385 W/m² | - |
| 1778164329 | 15° C | 72% | 1015.4 hPa | 0 mm | - | 248 W/m² | - |
| 1778164029 | 15° C | 75% | 1015.5 hPa | 0 mm | - | 260 W/m² | - |
| 1778163729 | 14.44° C | 74% | 1015.5 hPa | 0 mm | - | 271 W/m² | - |
| 1778163429 | 14.44° C | 73% | 1015.6 hPa | 0 mm | - | 258 W/m² | - |
| 1778163129 | 14.44° C | 76% | 1015.6 hPa | 0 mm | - | 302 W/m² | - |
| 1778162830 | 13.89° C | 78% | 1015.6 hPa | 0 mm | - | 309 W/m² | - |
| 1778162529 | 13.33° C | 80% | 1015.6 hPa | 0 mm | - | 223 W/m² | - |
| 1778162230 | 13.33° C | 82% | 1015.6 hPa | 0 mm | - | 190 W/m² | - |
| 1778161930 | 13.33° C | 82% | 1015.6 hPa | 0 mm | - | 179 W/m² | - |
| 1778161630 | 13.33° C | 83% | 1015.7 hPa | 0 mm | - | 144 W/m² | - |
| 1778161330 | 13.33° C | 83% | 1015.7 hPa | 0 mm | - | 121 W/m² | - |
| 1778161030 | 13.33° C | 82% | 1015.8 hPa | 0 mm | - | 105 W/m² | - |
| 1778160730 | 13.33° C | 81% | 1015.8 hPa | 0 mm | - | 81 W/m² | - |
| 1778160429 | 13.33° C | 81% | 1015.8 hPa | 0 mm | - | 70 W/m² | - |
| 1778160130 | 13.89° C | 81% | 1015.8 hPa | 0 mm | - | 63 W/m² | - |
| 1778159831 | 13.89° C | 80% | 1015.8 hPa | 0 mm | - | 65 W/m² | - |
| 1778159529 | 13.89° C | 80% | 1015.8 hPa | 0 mm | - | 67 W/m² | - |
| 1778159230 | 14.44° C | 79% | 1015.7 hPa | 0 mm | - | 72 W/m² | - |
* Rain latest hour (hover to see other rain measurements)
** Current wind speed in m/s (hover to see current wind gust speed)